Location: Spaichingen
(48.0400°N, 8.4300°E)
Time: 13:58:20
(UTC+02:00)

Tiangong 2 - Pass Details

Date: 24 May 2019
Orbit: 376 x 388 km, 42.8° (Epoch: 25 June)

Event Time Altitude Azimuth Distance (km) Brightness Sun altitude
Rises 23:46:22 0° 264° (W) 2,233 5.2 -17.8°
Reaches altitude 10° 23:48:42 10° 248° (WSW) 1,380 3.9 -17.9°
Enters shadow 23:49:19 13° 240° (WSW) 1,195 3.5 -18.0°
